Pittsburgh, PA

11:06 AM EST on December 10, 2019 (GMT -0500)
Pittsburgh International

Weather History for KPIT - October, 2019

Change the Weather History Date:

Saturday, October 19, 2019

  Actual Average Record
Temperature  
Mean Temperature 48 °F 52 °F  
Max Temperature 63 °F 62 °F 82 °F (1963)
Min Temperature 32 °F 42 °F 26 °F (1972)
Degree Days  
Heating Degree Days 18 13  
Month to date heating degree days 176 205  
Since 1 July heating degree days 184 319  
Cooling Degree Days 0 0  
Month to date cooling degree days 37 6  
Year to date cooling degree days 934 734  
Moisture  
Dew Point 38 °F    
Average Humidity 72    
Maximum Humidity 97    
Minimum Humidity 39    
Precipitation  
Precipitation 0.00 in 0.07 in 1.56 in (1916)
Month to date precipitation 3.20 1.36  
Year to date precipitation 43.29 31.18  
Snow  
Snow 0.00 in 0.00 in 0.90 in (1992)
Month to date snowfall 0.0 0.1  
Snow Depth 0.00 in    
Sea Level Pressure  
Sea Level Pressure 30.01 in    
Wind  
Wind Speed 2 mph ()    
Max Wind Speed 9 mph    
Max Gust Speed 15 mph    
Visibility 9.7 miles    
Events      
T = Trace of Precipitation, MM = Missing Value Source: Averaged Metar Reports

Daily Weather History Graph

Daily Weather History Graph

Search for Another Location

Airport or City:

Astronomy

Oct. 19, 2019 Rise Set
Actual Time 7:35 AM EDT 6:35 PM EDT
Civil Twilight 7:08 AM EDT 7:02 PM EDT
Nautical Twilight 6:36 AM EDT 7:34 PM EDT
Astronomical Twilight 6:04 AM EDT 8:06 PM EDT
Moon 10:41 PM EDT (10/19) 1:07 PM EDT (10/19)
Length of Visible Light 11h 54m
Length of Day
10h 59m
Waning Gibbous, 70% of the Moon is Illuminated
Oct 19
Waning Gibbous
Oct 21
Last Quarter
Oct 27
New
Nov 4
First Quarter
Nov 12
Full

Hourly Weather History & Observations

Time (EDT) Temp. Windchill Dew Point Humidity Pressure Visibility Wind Dir Wind Speed Gust Speed Precip Events Conditions
12:51 AM 41.0 °F 39.0 °F 37.9 °F 89% 30.06 in 10.0 mi East 3.5 mph - N/A   Partly Cloudy
1:51 AM 37.9 °F - 35.1 °F 89% 30.08 in 10.0 mi Calm Calm - N/A   Partly Cloudy
2:51 AM 37.9 °F - 35.1 °F 89% 30.09 in 10.0 mi Calm Calm - N/A   Clear
3:51 AM 36.0 °F - 33.1 °F 89% 30.09 in 10.0 mi Calm Calm - N/A   Clear
4:51 AM 36.0 °F - 34.0 °F 93% 30.08 in 9.0 mi Calm Calm - N/A   Clear
5:51 AM 34.0 °F - 32.0 °F 92% 30.08 in 7.0 mi Calm Calm - N/A   Partly Cloudy
6:51 AM 33.1 °F - 32.0 °F 96% 30.09 in 10.0 mi Calm Calm - N/A   Partly Cloudy
7:51 AM 33.1 °F - 32.0 °F 96% 30.09 in 8.0 mi Calm Calm - N/A   Partly Cloudy
8:51 AM 35.1 °F - 34.0 °F 96% 30.09 in 9.0 mi Calm Calm - N/A   Partly Cloudy
9:51 AM 39.9 °F 36.7 °F 39.0 °F 97% 30.08 in 10.0 mi East 4.6 mph - N/A   Partly Cloudy
10:51 AM 48.0 °F - 41.0 °F 77% 30.06 in 10.0 mi Variable 3.5 mph - N/A   Partly Cloudy
11:51 AM 53.1 °F - 39.0 °F 59% 30.05 in 10.0 mi NE 9.2 mph - N/A   Scattered Clouds
12:51 PM 57.0 °F - 37.9 °F 49% 30.04 in 10.0 mi Variable 3.5 mph - N/A   Scattered Clouds
1:51 PM 59.0 °F - 39.0 °F 48% 30.00 in 10.0 mi SE 6.9 mph - N/A   Mostly Cloudy
2:51 PM 60.1 °F - 36.0 °F 41% 29.96 in 10.0 mi SSE 4.6 mph - N/A   Mostly Cloudy
3:51 PM 63.0 °F - 37.9 °F 40% 29.95 in 10.0 mi SE 9.2 mph - N/A   Mostly Cloudy
4:51 PM 63.0 °F - 37.9 °F 40% 29.94 in 10.0 mi South 6.9 mph - N/A   Mostly Cloudy
5:51 PM 62.1 °F - 37.9 °F 41% 29.94 in 10.0 mi Calm Calm - N/A   Overcast
6:51 PM 57.9 °F - 41.0 °F 53% 29.93 in 10.0 mi ENE 3.5 mph - N/A   Overcast
7:51 PM 55.9 °F - 42.1 °F 60% 29.93 in 10.0 mi Calm Calm - N/A   Overcast
8:51 PM 55.0 °F - 43.0 °F 64% 29.91 in 10.0 mi Calm Calm - N/A   Overcast
9:51 PM 50.0 °F - 44.1 °F 80% 29.92 in 10.0 mi Calm Calm - N/A   Overcast
10:51 PM 52.0 °F - 44.1 °F 74% 29.91 in 10.0 mi Calm Calm - N/A   Overcast
11:51 PM 50.0 °F - 43.0 °F 77% 29.92 in 10.0 mi South 3.5 mph - N/A   Mostly Cloudy